Parrsboro, Nova Scotia

1:17 AM ADT on August 19, 2017 (GMT -0300)
Parrsboro

Weather History for CAPR - January, 2014

Change the Weather History Date:

Thursday, January 2, 2014

  Actual Average Record
Temperature  
Mean Temperature -6 °F -  
Max Temperature -1 °F - - ()
Min Temperature -12 °F - - ()
Degree Days  
Heating Degree Days 72    
Moisture  
Dew Point -15 °F    
Average Humidity 68    
Maximum Humidity 80    
Minimum Humidity 45    
Precipitation  
Precipitation 0.01 in - - ()
Sea Level Pressure  
Sea Level Pressure 30.38 in    
Wind  
Wind Speed 6 mph ()    
Max Wind Speed 9 mph    
Max Gust Speed 17 mph    
T = Trace of Precipitation, MM = Missing Value Source: Averaged Metar Reports

Daily Weather History Graph

Daily Weather History Graph

Search for Another Location

Airport or City:

Trip Planner

Search our weather history database for the weather conditions in past years. The results will help you decide how hot, cold, wet, or windy it might be!

Date:

Astronomy

Jan. 02, 2014 Rise Set
Actual Time 7:57 AM AST 4:45 PM AST
Civil Twilight 7:23 AM AST 5:19 PM AST
Nautical Twilight 6:45 AM AST 5:57 PM AST
Astronomical Twilight 6:10 AM AST 6:33 PM AST
Moon 8:29 AM AST (1/2) 6:44 PM AST (1/2)
Length of Visible Light 9h 56m
Length of Day
8h 48m
New Moon, 2% of the Moon is Illuminated
Jan 2
New Moon
Jan 7
First Quarter
Jan 16
Full
Jan 24
Last Quarter
Jan 30
New

Hourly Weather History & Observations

Time (AST) Temp. Windchill Dew Point Humidity Pressure Visibility Wind Dir Wind Speed Gust Speed Precip Events Conditions
12:00 AM 1.8 °F -10.8 °F -5.4 °F 72% 30.32 in - NNW 6.9 mph - N/A   Unknown
1:00 AM 0.1 °F -15.1 °F -7.2 °F 71% 30.33 in - NW 9.2 mph - N/A   Unknown
2:00 AM -1 °F - -8 °F 60% 30.35 in - NW 6.9 mph - -  
2:00 AM -1.5 °F -13.3 °F -8.0 °F 74% 30.35 in - NW 5.8 mph - N/A   Unknown
3:00 AM -3.1 °F -11.4 °F -8.3 °F 78% 30.38 in - WNW 3.5 mph - N/A   Unknown
4:00 AM -4.7 °F -18.6 °F -9.6 °F 80% 30.40 in - WNW 6.9 mph - N/A   Unknown
5:00 AM -5.6 °F -18.2 °F -12.8 °F 71% 30.42 in - WNW 5.8 mph - N/A   Unknown
6:00 AM -8.5 °F -17.6 °F -15.2 °F 73% 30.42 in - NNW 3.5 mph - N/A   Unknown
7:00 AM -9.9 °F -21.5 °F -17.1 °F 71% 30.44 in - NNW 4.6 mph - N/A   Unknown
8:00 AM -11 °F - -19 °F 54% 30.45 in - NNW 5.8 mph - -  
8:00 AM -11.4 °F -26.7 °F -18.8 °F 70% 30.45 in - NNW 6.9 mph - N/A   Unknown
9:00 AM -11.7 °F -27.1 °F -18.8 °F 71% 30.48 in - North 6.9 mph - N/A   Unknown
10:00 AM -12.3 °F -29.1 °F -22.9 °F 59% 30.50 in - North 8.1 mph - N/A   Unknown
11:00 AM -11.6 °F -28.3 °F -25.6 °F 50% 30.48 in - NNW 8.1 mph 17.3 mph N/A   Unknown
12:00 PM -9.9 °F -27.5 °F -22.2 °F 55% 30.46 in - NNW 9.2 mph - N/A   Unknown
1:00 PM -9.4 °F -22.7 °F -20.9 °F 57% 30.44 in - NNE 5.8 mph - N/A   Unknown
2:00 PM -8 °F - -18 °F 45% 30.42 in - North 6.9 mph - -  
2:00 PM -8.3 °F -21.4 °F -18.2 °F 62% 30.42 in - NNE 5.8 mph - N/A   Unknown
3:00 PM -8.3 °F -24.3 °F -16.6 °F 67% 30.40 in - NNW 8.1 mph - N/A   Unknown
4:00 PM -8.9 °F -23.6 °F -16.1 °F 71% 30.39 in - NNE 6.9 mph - N/A   Unknown
5:00 PM -9.9 °F -27.5 °F -17.7 °F 69% 30.36 in - North 9.2 mph - N/A   Unknown
6:00 PM -9.8 °F -24.7 °F -16.1 °F 74% 30.36 in - NNE 6.9 mph - N/A   Unknown
7:00 PM -9.4 °F -22.7 °F -15.5 °F 74% 30.35 in - NNE 5.8 mph - N/A   Unknown
8:00 PM -9 °F - -15 °F 63% 30.30 in - NNE 9.2 mph - -  
8:00 PM -9.2 °F -25.4 °F -15.0 °F 76% 30.30 in - NNE 8.1 mph - N/A   Unknown
9:00 PM -8.9 °F -26.2 °F -14.3 °F 77% 30.27 in - NNE 9.2 mph - N/A   Unknown
10:00 PM -8.1 °F -21.2 °F -13.4 °F 78% 30.25 in - NNE 5.8 mph - N/A   Unknown
11:00 PM -7.4 °F -23.2 °F -12.6 °F 78% 30.20 in - North 8.1 mph - N/A   Unknown